Regional Weather Roundup
Issued by NWS

Home | Current Version | Previous Version | Text Only | Print | Product List | Glossary Off
Versions: 1 2 3 4 5 6 7 8 9 10 11 12 13 14 15 16 17 18 19 20 21 22 23 24 25 26 27 28 29 30 31 32 33 34 35 36 37 38 39 40 41 42 43 44 45 46 47 48 49 50

000
ASUS43 KOAX 051002
RWRNE

WEATHER ROUNDUP FOR NEBRASKA
NATIONAL WEATHER SERVICE OMAHA NE
500 AM CDT WED AUG 05 2015

NOTES: SATELLITE DATA IS BEING USED TO AUGMENT CLOUD COVER ABOVE
       12000 FEET.
       "FAIR" INDICATES FEW OR NO CLOUDS BELOW 12,000 FEET WITH NO
       SIGNIFICANT WEATHER AND/OR OBSTRUCTIONS TO VISIBILITY.

  * THESE STATIONS DO NOT REPORT WEATHER SUCH AS RAIN...SNOW OR FOG.

NEZ001>004-019>022-054>056-051100-
NEBRASKA PANHANDLE

CITY           SKY/WX    TMP DP  RH WIND       PRES   REMARKS
SCOTTSBLUFF    FOG       60  60 100 NE5       30.06F VSB 1/4
ALLIANCE       FOG       55  54  96 E3        30.06S VSB 1/2
CHADRON        CLEAR     60  58  92 CALM      30.02S
KIMBALL        CLEAR     55  53  93 W6        30.10F
SIDNEY         CLEAR     54  53  97 W6        30.09F
$$

NEZ057>060-069>072-079>082-051100-
SOUTHWEST NEBRASKA

CITY           SKY/WX    TMP DP  RH WIND       PRES   REMARKS
NORTH PLATTE   FOG       60  59  96 CALM      30.03S VSB 1/2
IMPERIAL       CLEAR     58  56  93 NW3       30.03F
LEXINGTON      FOG       65  64  97 CALM      30.01F VSB 3/4
MCCOOK         CLEAR     60  58  92 N6        30.01S
$$

NEZ005>010-023>029-035>040-094-051100-
NORTH CENTRAL NEBRASKA

CITY           SKY/WX    TMP DP  RH WIND       PRES   REMARKS
BROKEN BOW     CLOUDY    65  64  97 CALM      30.01S FOG
ORD            MOCLDY    63  62  97 SW3       29.99S
$$

NEZ041-046>049-061>064-073>077-083>087-051100-
SOUTH CENTRAL NEBRASKA

CITY           SKY/WX    TMP DP  RH WIND       PRES   REMARKS
GRAND ISLAND   CLOUDY    65  64  97 E3        30.00S
AURORA         LGT RAIN  66  66 100 N3        29.99F
HASTINGS       CLOUDY    64  63  96 CALM      29.99S FOG
KEARNEY *      PTCLDY    61  57  88 NE6       30.00S
$$

NEZ011>018-030>034-042>045-051100-
NORTHEAST NEBRASKA

CITY           SKY/WX    TMP DP  RH WIND       PRES   REMARKS
NORFOLK        CLOUDY    68  64  87 E3        30.00R
BLAIR          CLOUDY    66  64  93 CALM      29.98S
COLUMBUS *     CLOUDY    66  63  88 E3        29.99S
TEKAMAH        CLOUDY    67  65  93 CALM      29.97F
$$

NEZ050>053-065>068-078-088>093-051100-
SOUTHEAST NEBRASKA

CITY           SKY/WX    TMP DP  RH WIND       PRES   REMARKS
LINCOLN        CLOUDY    72  68  87 SE7       29.97S
OMAHA EPPLEY   CLOUDY    68  66  93 S5        29.97F
FALLS CITY     MOCLDY    69  68  96 E5        29.96F FOG
$$

NEZ044-045-051>053-067-051100-
OMAHA AREA

CITY           SKY/WX    TMP DP  RH WIND       PRES   REMARKS
OMAHA EPPLEY   CLOUDY    68  66  93 S5        29.97F
BLAIR          CLOUDY    66  64  93 CALM      29.98S
OFFUTT AFB     CLOUDY    68  67  94 SE6       29.96F
$$


USA.gov is the U.S. government's official web portal to all federal, state and local government web resources and services.